DW0501 Weather Reports


time (UTC)temp
C
wind
direction
speed
KPH
gust
KPH
rain 1hr
cm
rain 24hr
cm
rain mn
cm
humidity
%
barometer
mb
20260507115052 11 312 0.0 0.0 0.00 0.00 0.41 98 1011.2
20260507114554 11 312 0.0 0.0 0.00 0.00 0.41 98 1011.2
20260507114052 11 312 0.0 0.0 0.00 0.00 0.41 98 1011.2
20260507113556 11 312 0.0 0.0 0.00 0.00 0.41 98 1011.3
20260507113051 11 312 0.0 0.0 0.00 0.00 0.41 98 1011.3
20260507112551 11 312 0.0 0.0 0.00 0.00 0.41 98 1011.3
20260507112054 11 312 0.0 0.0 0.00 0.00 0.41 98 1011.2
20260507111550 11 312 0.0 0.0 0.00 0.00 0.41 98 1011.2
20260507111049 11 312 0.0 0.0 0.00 0.00 0.41 98 1011.2
20260507110549 11 312 0.0 0.0 0.00 0.00 0.41 98 1011.0
20260507110049 11 312 0.0 0.0 0.00 0.00 0.41 98 1011.0
20260507105550 11 312 0.0 0.0 0.00 0.00 0.41 98 1011.0
20260507105051 11 312 0.0 0.0 0.00 0.00 0.41 98 1010.8
20260507104553 11 312 0.0 0.0 0.00 0.00 0.41 98 1010.8
20260507104046 11 312 0.0 0.0 0.00 0.00 0.41 98 1010.8
20260507103547 11 312 0.0 0.0 0.00 0.00 0.41 97 1010.8
20260507103046 11 312 0.0 0.0 0.00 0.00 0.41 97 1010.8
20260507102545 11 312 0.0 0.0 0.00 0.00 0.41 97 1010.8
20260507102046 11 312 0.0 0.0 0.00 0.00 0.41 97 1010.4
20260507101556 11 312 0.0 0.0 0.00 0.00 0.41 97 1010.4
20260507101045 11 312 0.0 0.0 0.00 0.00 0.41 97 1010.4
20260507100545 11 312 0.0 0.0 0.00 0.00 0.41 97 1010.4
20260507100054 11 312 0.0 0.0 0.00 0.00 0.41 97 1010.4
20260507095544 11 312 0.0 0.0 0.00 0.00 0.41 97 1010.4
20260507095043 11 312 0.0 0.0 0.00 0.00 0.41 97 1010.3
20260507094543 11 312 0.0 0.0 0.00 0.00 0.41 97 1010.3
20260507094043 11 312 0.0 0.0 0.00 0.00 0.41 97 1010.3
20260507093543 11 312 0.0 0.0 0.00 0.00 0.41 97 1010.4
20260507093043 11 312 0.0 0.0 0.00 0.00 0.41 97 1010.4
20260507092543 11 312 0.0 0.0 0.00 0.00 0.41 97 1010.4
20260507092043 11 312 0.0 0.0 0.00 0.00 0.41 97 1010.7
20260507091543 11 312 0.0 0.0 0.00 0.00 0.41 97 1010.7
20260507091043 11 312 0.0 0.0 0.00 0.00 0.41 97 1010.7
20260507090543 11 312 0.0 0.0 0.00 0.00 0.41 96 1010.3
20260507090047 11 312 0.0 0.0 0.00 0.00 0.41 97 1010.3
20260507085542 11 312 0.0 0.0 0.00 0.00 0.41 96 1010.3
20260507085041 11 312 0.0 0.0 0.00 0.00 0.41 96 1010.1
20260507084547 11 312 0.0 0.0 0.00 0.00 0.41 96 1010.1
20260507084041 11 312 0.0 0.0 0.00 0.00 0.41 96 1010.1
20260507083540 11 312 0.0 0.0 0.00 0.00 0.41 96 1009.9
20260507083057 11 312 0.0 0.0 0.00 0.00 0.41 96 1009.9
20260507082541 11 312 0.0 0.0 0.00 0.00 0.41 96 1009.9
20260507082039 11 312 0.0 0.0 0.00 0.00 0.41 96 1009.6
20260507081545 11 312 0.0 0.0 0.00 0.00 0.41 96 1009.6
20260507081041 11 312 0.0 0.0 0.00 0.00 0.41 96 1009.6
20260507080541 11 312 0.0 0.0 0.00 0.00 0.41 96 1009.6
20260507080037 11 312 0.0 0.0 0.00 0.00 0.41 96 1009.6
20260507075540 11 311 0.0 0.0 0.00 0.00 0.41 96 1009.6
20260507075037 11 309 0.0 0.0 0.00 0.00 0.41 96 1009.3
20260507074536 12 1 0.0 0.0 0.00 0.00 0.41 96 1009.3
20260507074035 12 1 0.0 0.0 0.00 0.00 0.41 96 1009.3
20260507073534 12 3 0.0 0.0 0.00 0.00 0.41 96 1009.3
20260507073044 12 0 0.0 0.0 0.00 0.00 0.41 96 1009.3
20260507072536 12 0 0.0 0.0 0.00 0.00 0.41 96 1009.3
20260507072036 12 359 0.0 0.0 0.00 0.00 0.41 96 1009.3
20260507071536 12 0 0.0 0.0 0.00 0.00 0.41 96 1009.3
20260507071032 12 0 0.0 0.0 0.00 0.00 0.41 96 1009.3
20260507070532 12 354 0.0 0.0 0.00 0.00 0.41 96 1009.3
20260507070038 12 3 0.0 0.0 0.00 0.00 0.41 95 1009.3
20260507065530 12 0 0.0 0.0 0.00 0.00 0.41 95 1009.3
20260507065030 12 357 0.0 0.0 0.00 0.00 0.41 95 1009.6
20260507064536 12 357 0.0 0.0 0.00 0.00 0.41 95 1009.6
20260507064031 12 3 0.0 0.0 0.00 0.00 0.38 95 1009.6
20260507063531 12 8 0.0 0.0 0.00 0.00 0.38 94 1009.0
20260507063031 13 357 1.6 0.0 0.00 0.00 0.38 94 1009.0
20260507062528 13 356 0.0 0.0 0.00 0.00 0.38 94 1009.0
20260507062028 13 332 0.0 0.0 0.00 0.00 0.38 94 1009.4
20260507061528 13 7 0.0 0.0 0.00 0.00 0.38 93 1009.4
20260507061030 13 356 0.0 0.0 0.00 0.00 0.38 93 1009.4
20260507060526 13 352 0.0 0.0 0.00 0.00 0.38 93 1009.4
20260507060024 13 359 0.0 0.0 0.00 0.00 0.38 92 1009.4
20260507055525 13 6 0.0 0.0 0.00 0.00 0.38 92 1009.4
20260507055025 13 27 0.0 0.0 0.00 0.00 0.38 91 1009.4
20260507054526 13 347 0.0 0.0 0.00 0.00 0.38 91 1009.4
20260507054023 13 352 0.0 0.0 0.00 0.00 0.38 91 1009.4
20260507053522 13 352 0.0 0.0 0.00 0.00 0.38 90 1009.3
20260507053022 14 312 0.0 0.0 0.00 0.00 0.38 89 1009.3
20260507052520 14 312 0.0 0.0 0.00 0.00 0.38 88 1009.3
20260507052022 14 311 0.0 0.0 0.00 0.00 0.33 88 1009.9
20260507051519 14 311 0.0 0.0 0.00 0.00 0.20 87 1009.9
20260507051018 15 311 0.0 0.0 0.00 0.00 0.10 86 1009.9
20260507050517 15 311 0.0 0.0 0.00 0.00 0.10 85 1009.4
20260507050020 15 353 0.0 0.0 0.00 0.00 0.05 84 1009.4
20260507045515 15 353 1.6 0.0 0.00 0.00 0.05 83 1009.4
20260507045014 15 357 1.6 0.0 0.00 0.00 0.00 82 1009.5
20260507044513 15 274 1.6 0.0 0.00 0.00 0.00 81 1009.5
20260507044011 15 304 3.2 0.0 0.00 0.00 0.00 81 1009.5
20260507043510 16 270 3.2 0.0 0.00 0.00 0.00 80 1009.4
20260507043010 16 0 3.2 0.0 0.00 0.00 0.00 79 1009.4
20260507042509 16 337 1.6 0.0 0.00 0.00 0.00 79 1009.4
20260507042008 16 292 1.6 0.0 0.00 0.00 0.00 78 1009.1
20260507041522 16 342 1.6 0.0 0.00 0.00 0.00 78 1009.1
20260507041008 16 282 0.0 0.0 0.00 0.00 0.00 78 1009.1
20260507040507 16 326 0.0 0.0 0.00 0.00 0.48 77 1008.8
20260507040006 16 295 0.0 0.0 0.00 0.00 0.48 77 1008.8
20260507035506 16 288 0.0 0.0 0.00 0.00 0.48 77 1008.8
20260507035006 16 265 0.0 0.0 0.00 0.00 0.48 77 1008.8
20260507034506 16 301 0.0 0.0 0.00 0.00 0.48 77 1008.8
20260507034005 16 353 0.0 0.0 0.00 0.00 0.48 77 1008.8
20260507033505 16 357 1.6 0.0 0.00 0.00 0.48 77 1008.9
20260507033005 17 357 0.0 0.0 0.00 0.00 0.48 77 1008.9
20260507032506 17 333 0.0 0.0 0.00 0.00 0.48 77 1008.9
20260507032006 17 359 1.6 0.0 0.00 0.00 0.48 77 1008.7
20260507031505 17 287 1.6 0.0 0.00 0.00 0.48 77 1008.7
20260507031009 17 295 1.6 0.0 0.00 0.00 0.48 77 1008.7
20260507030508 17 250 1.6 0.0 0.00 0.00 0.48 78 1008.8
20260507030005 17 0 1.6 0.0 0.00 0.00 0.48 78 1008.8
20260507025504 17 357 3.2 0.0 0.00 0.00 0.48 79 1008.8
20260507025004 17 291 3.2 0.0 0.00 0.00 0.48 80 1008.3
20260507024504 18 356 3.2 0.0 0.00 0.00 0.48 82 1008.3
20260507024003 18 294 1.6 0.0 0.00 0.00 0.48 83 1008.3
20260507023507 18 265 1.6 0.0 0.00 0.00 0.48 83 1008.1
20260507023004 18 306 1.6 0.0 0.00 0.00 0.48 83 1008.1
20260507022507 18 316 1.6 0.0 0.00 0.00 0.48 83 1008.1
20260507022005 18 285 1.6 0.0 0.00 0.00 0.48 83 1007.9
20260507021503 18 359 0.0 0.0 0.00 0.00 0.48 82 1007.9
20260507021003 18 306 0.0 0.0 0.00 0.00 0.48 82 1007.9
20260507020503 18 0 0.0 0.0 0.00 0.00 0.48 82 1008.0
20260507020003 18 11 0.0 0.0 0.00 0.00 0.48 82 1008.0
20260507015504 18 260 1.6 0.0 0.00 0.00 0.48 82 1008.0
20260507015059 18 260 1.6 0.0 0.00 0.00 0.48 82 1008.3
20260507014608 18 260 0.0 0.0 0.00 0.00 0.48 82 1008.3
20260507014059 18 280 0.0 0.0 0.00 0.00 0.48 83 1008.3
20260507013559 18 332 0.0 0.0 0.00 0.00 0.48 83 1008.1
20260507013059 19 359 0.0 0.0 0.00 0.00 0.48 84 1008.1
20260507012559 19 261 0.0 0.0 0.00 0.00 0.48 85 1008.1
20260507012058 19 339 0.0 0.0 0.00 0.00 0.48 85 1008.2
20260507011602 19 42 0.0 0.0 0.00 0.00 0.48 85 1008.2
20260507011058 19 44 0.0 0.0 0.00 0.00 0.48 85 1008.2
20260507010558 19 42 0.0 0.0 0.00 0.00 0.48 84 1007.9
20260507010057 19 44 0.0 0.0 0.00 0.00 0.48 84 1007.9
20260507005557 19 44 0.0 0.0 0.00 0.00 0.48 84 1007.9
20260507005056 19 44 0.0 0.0 0.00 0.00 0.48 84 1007.7
20260507004557 19 44 0.0 0.0 0.00 0.00 0.48 83 1007.7
20260507004057 19 44 0.0 0.0 0.00 0.00 0.48 83 1007.7
20260507003557 19 44 0.0 0.0 0.00 0.00 0.48 83 1007.6
20260507003056 19 44 0.0 0.0 0.00 0.00 0.48 83 1007.6
20260507002556 19 44 0.0 0.0 0.00 0.00 0.48 82 1007.6
20260507002100 20 44 0.0 0.0 0.00 0.00 0.48 82 1007.6
20260507001558 20 42 0.0 0.0 0.00 0.00 0.48 82 1007.6
20260507001056 20 42 0.0 0.0 0.00 0.00 0.48 82 1007.6
20260507000556 20 42 0.0 0.0 0.00 0.00 0.48 81 1007.2
20260507000056 20 44 0.0 0.0 0.00 0.00 0.48 81 1007.2
20260506235556 20 44 0.0 0.0 0.00 0.00 0.48 81 1007.2
20260506235057 20 42 0.0 0.0 0.00 0.00 0.48 81 1007.1
20260506234601 20 42 0.0 0.0 0.00 0.00 0.48 80 1007.1
20260506234057 20 44 0.0 0.0 0.00 0.00 0.48 80 1007.1
20260506233558 20 42 0.0 0.0 0.00 0.00 0.48 80 1007.0
20260506233058 20 44 0.0 0.0 0.00 0.00 0.48 80 1007.0
20260506232554 20 44 0.0 0.0 0.00 0.00 0.48 80 1007.0
20260506232054 20 44 0.0 0.0 0.00 0.00 0.48 80 1007.0
20260506231559 20 44 0.0 0.0 0.00 0.00 0.48 79 1007.0
20260506231056 20 232 0.0 0.0 0.00 0.00 0.48 79 1007.0
20260506230555 20 243 0.0 0.0 0.00 0.00 0.48 79 1007.0
20260506230058 20 243 0.0 0.0 0.00 0.00 0.48 79 1007.0
20260506225553 21 224 0.0 0.0 0.00 0.00 0.48 79 1007.0
20260506225053 21 224 0.0 0.0 0.00 0.00 0.48 79 1006.6
20260506224553 21 230 0.0 0.0 0.00 0.00 0.48 78 1006.6
20260506224053 21 326 0.0 0.0 0.00 0.00 0.48 78 1006.6
20260506223553 21 326 0.0 0.0 0.00 0.00 0.48 77 1006.8
20260506223057 21 326 0.0 0.0 0.00 0.00 0.48 77 1006.8
20260506222553 21 326 0.0 0.0 0.00 0.00 0.48 77 1006.8
20260506222053 21 326 0.0 0.0 0.00 0.00 0.48 77 1006.8
20260506221553 21 326 0.0 0.0 0.00 0.00 0.48 76 1006.8
20260506221052 21 326 0.0 0.0 0.00 0.00 0.48 76 1006.8
20260506220552 21 326 0.0 0.0 0.00 0.00 0.48 75 1006.8
20260506220055 21 326 0.0 0.0 0.00 0.00 0.48 75 1006.8
20260506215552 21 326 0.0 0.0 0.00 0.00 0.48 75 1006.8
20260506215051 21 326 0.0 0.0 0.00 0.00 0.48 75 1006.6
20260506214552 22 326 0.0 0.0 0.00 0.00 0.48 75 1006.6
20260506214052 22 302 0.0 0.0 0.00 0.00 0.48 74 1006.6
20260506213551 22 302 0.0 0.0 0.00 0.00 0.48 73 1006.5
20260506213104 22 302 0.0 0.0 0.00 0.00 0.48 73 1006.5
20260506212551 22 219 0.0 0.0 0.00 0.00 0.48 73 1006.5
20260506212051 22 219 0.0 0.0 0.00 0.00 0.48 74 1006.5
20260506211604 22 219 0.0 0.0 0.00 0.00 0.48 73 1006.5
20260506211051 22 219 0.0 0.0 0.00 0.00 0.48 75 1006.5
20260506210551 22 217 0.0 0.0 0.00 0.00 0.48 75 1006.5
20260506210050 21 216 0.0 0.0 0.00 0.00 0.48 75 1006.5
20260506205549 21 216 0.0 0.0 0.00 0.00 0.48 75 1006.5
20260506205050 21 216 0.0 0.0 0.00 0.00 0.48 75 1006.3
20260506204556 21 216 0.0 0.0 0.00 0.00 0.48 74 1006.3
20260506204049 21 217 0.0 0.0 0.00 0.00 0.48 74 1006.3
20260506203549 22 224 0.0 0.0 0.00 0.00 0.48 74 1006.4
20260506203052 22 243 0.0 0.0 0.00 0.00 0.48 73 1006.4
20260506202549 22 337 0.0 0.0 0.00 0.00 0.48 72 1006.4
20260506202052 22 114 0.0 0.0 0.00 0.00 0.48 72 1006.1
20260506201559 22 127 0.0 0.0 0.00 0.00 0.48 73 1006.1
20260506201049 22 140 0.0 0.0 0.00 0.00 0.48 73 1006.1
20260506200547 22 104 0.0 0.0 0.00 0.00 0.48 74 1006.3
20260506200048 22 250 0.0 0.0 0.00 0.00 0.48 75 1006.3
20260506195547 22 126 0.0 0.0 0.00 0.00 0.48 75 1006.3
20260506195045 22 195 0.0 0.0 0.00 0.00 0.48 75 1006.4
20260506194556 21 195 0.0 0.0 0.00 0.00 0.48 75 1006.4
20260506194046 21 199 0.0 0.0 0.00 0.00 0.48 76 1006.4
20260506193544 21 243 0.0 0.0 0.00 0.00 0.48 78 1006.4
20260506193045 21 196 0.0 0.0 0.00 0.00 0.48 78 1006.4
20260506192548 21 73 0.0 0.0 0.00 0.00 0.48 79 1006.4
20260506192044 21 110 0.0 0.0 0.00 0.00 0.48 80 1006.6
20260506191547 21 302 0.0 0.0 0.00 0.00 0.48 81 1006.6
20260506191046 20 302 0.0 0.0 0.00 0.00 0.48 80 1006.6
20260506190544 20 217 0.0 0.0 0.00 0.00 0.48 82 1006.8
20260506190043 20 126 0.0 0.0 0.00 0.00 0.48 84 1006.8
20260506185542 20 112 0.0 0.0 0.00 0.00 0.48 85 1006.8
20260506185045 20 116 0.0 0.0 0.00 0.00 0.48 86 1007.0
20260506184542 20 117 0.0 0.0 0.00 0.00 0.48 86 1007.0
20260506184042 19 116 0.0 0.0 0.00 0.00 0.48 87 1007.0
20260506183542 19 116 0.0 0.0 0.00 0.00 0.48 88 1007.1
20260506183056 19 181 0.0 0.0 0.00 0.00 0.48 89 1007.1
20260506182540 19 182 0.0 0.0 0.00 0.00 0.48 90 1007.1
20260506182044 18 182 0.0 0.0 0.00 0.00 0.48 91 1007.2
20260506181540 18 178 0.0 0.0 0.00 0.00 0.48 91 1007.2
20260506181040 18 124 0.0 0.0 0.00 0.00 0.48 92 1007.2
20260506180539 18 230 0.0 0.0 0.00 0.00 0.48 93 1007.3
20260506180041 18 232 0.0 0.0 0.00 0.00 0.48 93 1007.3
20260506175542 18 0 0.0 0.0 0.00 0.00 0.48 94 1007.3
20260506175038 18 268 0.0 0.0 0.00 0.00 0.48 95 1007.3
20260506174541 18 229 0.0 0.0 0.00 0.00 0.48 96 1007.3
20260506174038 18 220 0.0 0.0 0.00 0.00 0.48 96 1007.3
20260506173538 17 220 0.0 0.0 0.00 0.00 0.48 96 1007.4
20260506173043 17 164 0.0 0.0 0.00 0.00 0.48 97 1007.4
20260506172542 17 167 0.0 0.0 0.00 0.00 0.48 97 1007.4
20260506172040 17 195 0.0 0.0 0.00 0.00 0.48 97 1007.6
20260506171539 17 95 0.0 0.0 0.00 0.00 0.48 98 1007.6
20260506171040 17 65 0.0 0.0 0.00 0.00 0.48 97 1007.6
20260506170536 17 16 0.0 0.0 0.00 0.00 0.48 98 1007.6
20260506170043 17 226 0.0 0.0 0.00 0.00 0.48 98 1007.6
20260506165535 17 112 0.0 0.0 0.00 0.00 0.48 98 1007.6
20260506165037 17 104 0.0 0.0 0.00 0.00 0.48 98 1007.7
20260506164534 17 120 0.0 0.0 0.00 0.00 0.48 98 1007.7
20260506164035 17 83 0.0 0.0 0.00 0.00 0.48 98 1007.7
20260506163535 16 236 1.6 0.0 0.00 0.00 0.48 98 1007.7
20260506163034 16 120 0.0 0.0 0.00 0.00 0.48 98 1007.7
20260506162533 16 66 0.0 0.0 0.00 0.00 0.48 98 1007.7
20260506162038 16 93 1.6 0.0 0.00 0.00 0.48 98 1007.7
20260506161535 16 192 0.0 0.0 0.00 0.00 0.48 98 1007.7
20260506161033 16 357 0.0 0.0 0.00 0.00 0.48 98 1007.7
20260506160533 16 0 0.0 0.0 0.00 0.00 0.48 98 1007.7
20260506160035 16 147 0.0 0.0 0.00 0.00 0.48 98 1007.7
20260506155532 16 160 0.0 0.0 0.00 0.00 0.48 97 1007.7
20260506155031 16 169 0.0 0.0 0.00 0.00 0.48 97 1008.2
20260506154533 16 58 0.0 0.0 0.00 0.00 0.46 97 1008.2
20260506154031 16 202 0.0 0.0 0.00 0.00 0.46 97 1008.2
20260506153532 16 64 0.0 0.0 0.00 0.00 0.46 97 1008.0
20260506153031 16 64 0.0 0.0 0.00 0.00 0.46 97 1008.0
20260506152531 16 102 0.0 0.0 0.00 0.00 0.46 97 1008.0
20260506152033 16 103 0.0 0.0 0.00 0.00 0.43 96 1008.5
20260506151533 16 167 0.0 0.0 0.00 0.00 0.43 97 1008.5
20260506151030 16 167 0.0 0.0 0.00 0.00 0.43 96 1008.5
20260506150530 16 169 0.0 0.0 0.00 0.00 0.43 96 1008.8
20260506150029 16 169 0.0 0.0 0.00 0.00 0.43 95 1008.8
20260506145531 16 246 0.0 0.0 0.00 0.00 0.43 95 1008.8
20260506145029 16 76 0.0 0.0 0.00 0.00 0.43 95 1008.8
20260506144531 16 79 0.0 0.0 0.00 0.00 0.41 95 1008.8
20260506144030 16 80 0.0 0.0 0.00 0.00 0.41 94 1008.8
20260506143527 16 121 0.0 0.0 0.00 0.00 0.38 94 1008.7
20260506143032 16 121 0.0 0.0 0.00 0.00 0.38 93 1008.7
20260506142526 16 121 0.0 0.0 0.00 0.00 0.33 93 1008.7
20260506142029 16 121 0.0 0.0 0.00 0.00 0.30 92 1008.7
20260506141526 16 106 0.0 0.0 0.00 0.00 0.30 92 1008.7
20260506141029 16 93 0.0 0.0 0.00 0.00 0.28 92 1008.7
20260506140524 16 93 0.0 0.0 0.00 0.00 0.28 91 1008.8
20260506140024 16 284 0.0 0.0 0.00 0.00 0.23 91 1008.8
20260506135523 16 284 0.0 0.0 0.00 0.00 0.23 91 1008.8
20260506135022 17 285 0.0 0.0 0.00 0.00 0.20 90 1009.2
20260506134522 17 285 0.0 0.0 0.00 0.00 0.18 90 1009.2
20260506134122 17 285 0.0 0.0 0.00 0.00 0.15 89 1009.2
20260506133521 17 285 0.0 0.0 0.00 0.00 0.10 89 1009.1
20260506133020 17 264 0.0 0.0 0.00 0.00 0.08 88 1009.1
20260506132520 17 75 0.0 0.0 0.00 0.00 0.08 88 1009.1
20260506132022 17 69 0.0 0.0 0.00 0.00 0.08 87 1008.6
20260506131519 17 69 0.0 0.0 0.00 0.00 0.05 87 1008.6
20260506131018 17 69 0.0 0.0 0.00 0.00 0.05 86 1008.6
20260506130520 17 69 0.0 0.0 0.00 0.00 0.03 86 1008.4
20260506130017 17 69 0.0 0.0 0.00 0.00 0.03 85 1008.4
20260506125515 17 295 0.0 0.0 0.00 0.00 0.03 85 1008.4
20260506125015 17 215 0.0 0.0 0.00 0.00 0.03 84 1008.5
20260506124515 17 215 0.0 0.0 0.00 0.00 0.03 83 1008.5
20260506124014 17 158 0.0 0.0 0.00 0.00 0.03 82 1008.5
20260506123514 17 158 0.0 0.0 0.00 0.00 0.00 82 1008.7
20260506123014 17 158 0.0 0.0 0.00 0.00 0.00 81 1008.7
20260506122513 17 119 0.0 0.0 0.00 0.00 0.00 81 1008.7
20260506122014 17 117 0.0 0.0 0.00 0.00 0.00 80 1008.9
20260506121520 17 114 0.0 0.0 0.00 0.00 0.00 79 1008.9
20260506121012 18 145 0.0 0.0 0.00 0.00 0.00 79 1008.9
20260506120511 18 145 0.0 0.0 0.00 0.00 0.00 78 1008.7
20260506120011 18 137 0.0 0.0 0.00 0.00 0.00 77 1008.7
20260506115510 18 16 0.0 0.0 0.00 0.00 0.00 76 1008.7